FW4335 Weather Reports


Display with metric or nautical units.
time (UTC)temp
F
wind
direction
speed
MPH
gust
MPH
rain 1hr
in
rain 24hr
in
rain mn
in
humidity
%
barometer
mb
20260510111536 42 201 0.0 0.0 0.00 0.00 0.00 91 1018.6
20260510110106 42 202 0.0 2.0 0.00 0.00 0.00 91 1018.5
20260510104533 43 210 0.0 3.0 0.00 0.00 0.00 91 1018.8
20260510103031 43 225 0.0 1.0 0.00 0.00 0.00 90 1018.9
20260510094533 45 225 1.0 2.0 0.00 0.00 0.00 89 1018.5
20260510093029 45 225 0.0 3.0 0.00 0.00 0.00 88 1018.6
20260510090035 46 135 0.0 0.0 0.00 0.00 0.00 87 1018.8
20260510084535 46 159 0.0 2.0 0.00 0.00 0.00 86 1018.8
20260510083032 46 202 0.0 2.0 0.00 0.00 0.00 86 1018.9
20260510081607 47 191 1.0 2.0 0.00 0.00 0.00 84 1018.9
20260510080034 47 202 0.0 2.0 0.00 0.00 0.00 83 1019.0
20260510074533 48 202 0.0 2.0 0.00 0.00 0.00 82 1019.0
20260510071531 49 218 1.0 3.0 0.00 0.00 0.00 82 1019.1
20260510070035 49 225 0.0 1.0 0.00 0.00 0.00 81 1019.0
20260510063031 50 225 0.0 1.0 0.00 0.00 0.00 79 1018.9
20260510061534 51 225 0.0 1.0 0.00 0.00 0.00 80 1018.8
20260510060141 51 225 0.0 3.0 0.00 0.00 0.00 79 1018.8
20260510054528 52 187 0.0 3.0 0.00 0.00 0.00 78 1018.7
20260510053032 53 224 0.0 3.0 0.00 0.00 0.00 77 1018.7
20260510051529 54 202 0.0 3.0 0.00 0.00 0.00 75 1018.6
20260510050035 55 209 0.0 3.0 0.00 0.00 0.00 74 1018.4
20260510044647 57 213 1.0 4.0 0.00 0.00 0.00 73 1018.3
20260510043035 58 216 1.0 4.0 0.00 0.00 0.00 70 1018.2
20260510041641 60 202 0.0 1.0 0.00 0.00 0.00 69 1018.0
20260510040036 61 193 0.0 3.0 0.00 0.00 0.00 67 1017.8
20260510033030 65 220 0.0 3.0 0.00 0.00 0.00 60 1017.5
20260510031650 67 202 0.0 0.0 0.00 0.00 0.00 57 1017.4
20260510030033 68 202 0.0 0.0 0.00 0.00 0.00 55 1017.5
20260510023105 71 202 2.0 3.0 0.00 0.00 0.00 52 1017.4
20260510021534 72 290 0.0 4.0 0.00 0.00 0.00 51 1017.3
20260510014530 74 337 0.0 0.0 0.00 0.00 0.00 47 1017.5
20260510013035 73 337 0.0 0.0 0.00 0.00 0.00 45 1017.6
20260510010030 78 337 0.0 1.0 0.00 0.00 0.00 40 1017.8
20260510004529 79 297 0.0 2.0 0.00 0.00 0.00 38 1017.7
20260510003033 79 292 0.0 1.0 0.00 0.00 0.00 36 1017.8
20260509234535 78 302 0.0 2.0 0.00 0.00 0.00 36 1018.2
20260509233149 77 329 1.0 6.0 0.00 0.00 0.00 36 1018.5
20260509231533 77 343 1.0 6.0 0.00 0.00 0.00 35 1018.7
20260509230035 78 5 1.0 7.0 0.00 0.00 0.00 35 1019.0
20260509224531 78 342 1.0 6.0 0.00 0.00 0.00 37 1019.2
20260509223030 78 319 1.0 6.0 0.00 0.00 0.00 39 1019.6
20260509221536 77 350 1.0 5.0 0.00 0.00 0.00 40 1019.8
20260509214532 76 343 1.0 5.0 0.00 0.00 0.00 39 1020.2
20260509213034 75 359 1.0 6.0 0.00 0.00 0.00 37 1020.5
20260509211605 75 357 3.0 8.0 0.00 0.00 0.00 39 1020.7
20260509204537 74 349 2.0 7.0 0.00 0.00 0.00 45 1021.0
20260509203032 74 355 2.0 7.0 0.00 0.00 0.00 47 1021.1
20260509201536 73 348 2.0 6.0 0.00 0.00 0.00 48 1021.3
20260509200035 73 335 2.0 6.0 0.00 0.00 0.00 49 1021.7
20260509194535 73 319 1.0 4.0 0.00 0.00 0.00 50 1021.9
20260509193036 72 340 1.0 6.0 0.00 0.00 0.00 51 1022.1
20260509190145 70 328 0.0 4.0 0.00 0.00 0.00 53 1022.5
20260509184610 70 332 0.0 5.0 0.00 0.00 0.00 54 1022.7
20260509183150 69 333 0.0 6.0 0.00 0.00 0.00 54 1023.0
20260509181535 68 11 0.0 3.0 0.00 0.00 0.00 55 1023.1
20260509174534 66 326 0.0 4.0 0.00 0.00 0.00 58 1023.2
20260509173036 65 344 0.0 4.0 0.00 0.00 0.00 60 1023.3
20260509171542 64 66 1.0 4.0 0.00 0.00 0.00 59 1023.6
20260509170144 63 10 0.0 5.0 0.00 0.00 0.00 61 1023.8
20260509164607 62 27 0.0 3.0 0.00 0.00 0.00 63 1023.9
20260509161534 59 87 1.0 4.0 0.00 0.00 0.00 67 1024.3
20260509160029 59 40 1.0 4.0 0.00 0.00 0.00 71 1024.4
20260509154531 58 58 1.0 3.0 0.00 0.00 0.00 73 1024.5
20260509151607 56 25 1.0 3.0 0.00 0.00 0.00 78 1024.4
20260509150033 54 120 0.0 1.0 0.00 0.00 0.00 83 1024.4
20260509144543 52 181 0.0 0.0 0.00 0.00 0.00 89 1024.5
20260509143029 49 225 0.0 0.0 0.00 0.00 0.00 94 1024.5
20260509141550 47 225 0.0 0.0 0.00 0.00 0.00 95 1024.4
20260509140036 43 225 0.0 2.0 0.00 0.00 0.00 95 1024.2
20260509134537 40 225 0.0 2.0 0.00 0.00 0.00 95 1024.1
20260509133033 39 179 2.0 3.0 0.00 0.00 0.00 94 1024.1
20260509131607 39 185 0.0 2.0 0.00 0.00 0.00 94 1024.0
20260509130032 40 213 2.0 3.0 0.00 0.00 0.00 94 1023.7
20260509124541 40 202 0.0 1.0 0.00 0.00 0.00 94 1023.7